EW2549 Weather Reports


Display with metric or nautical units.
time (UTC)temp
F
wind
direction
speed
MPH
gust
MPH
rain 1hr
in
rain 24hr
in
rain mn
in
humidity
%
barometer
mb
20260504000020 66 348 0.0 0.0 0.00 0.00 0.00 26 1003.0
20260503234519 67 348 0.0 0.0 0.00 0.00 0.00 25 1003.3
20260503233018 68 23 0.0 0.0 0.00 0.00 0.00 24 1003.0
20260503231518 68 350 0.0 11.0 0.00 0.00 0.00 23 1002.7
20260503230017 68 277 0.0 0.0 0.00 0.00 0.00 20 1002.9
20260503224515 69 236 0.0 0.0 0.00 0.00 0.00 19 1002.9
20260503223014 69 235 1.0 11.0 0.00 0.00 0.00 19 1002.9
20260503221522 68 240 5.0 13.0 0.00 0.00 0.00 19 1003.0
20260503220012 69 30 7.0 18.0 0.00 0.00 0.00 19 1003.2
20260503214513 70 269 10.0 22.0 0.00 0.00 0.00 18 1003.7
20260503213025 71 254 10.0 15.0 0.00 0.00 0.00 17 1003.8
20260503211516 71 342 1.0 14.0 0.00 0.00 0.00 16 1004.0
20260503210011 72 321 4.0 13.0 0.00 0.00 0.00 14 1003.9
20260503204507 74 178 0.0 4.0 0.00 0.00 0.00 13 1004.0
20260503201512 75 184 1.0 5.0 0.00 0.00 0.00 13 1004.3
20260503200004 74 94 1.0 14.0 0.00 0.00 0.00 15 1004.6
20260503194503 72 110 0.0 0.0 0.00 0.00 0.00 16 1004.8
20260503193121 71 190 0.0 4.0 0.00 0.00 0.00 15 1005.0
20260503191602 71 82 0.0 14.0 0.00 0.00 0.00 15 1005.1
20260503184558 74 264 0.0 9.0 0.00 0.00 0.00 14 1005.5
20260503183101 75 355 0.0 9.0 0.00 0.00 0.00 14 1005.9
20260503181619 75 252 1.0 8.0 0.00 0.00 0.00 13 1006.1
20260503180104 75 229 5.0 12.0 0.00 0.00 0.00 14 1006.4
20260503174553 72 215 3.0 12.0 0.00 0.00 0.00 15 1006.8
20260503173053 69 242 5.0 13.0 0.00 0.00 0.00 17 1007.2
20260503171539 68 5 2.0 8.0 0.00 0.00 0.00 19 1007.5
20260503081530 52 245 0.0 1.0 0.00 0.00 0.00 32 1010.3
20260503071525 46 134 0.0 0.0 0.00 0.00 0.00 31 1010.9
20260503070117 45 126 0.0 0.0 0.00 0.00 0.00 31 1011.0
20260503054513 46 126 0.0 0.0 0.00 0.00 0.00 28 1011.3
20260503053010 47 126 0.0 0.0 0.00 0.00 0.00 28 1011.2
20260503051509 48 126 0.0 0.0 0.00 0.00 0.00 28 1011.2
20260503050008 48 126 0.0 0.0 0.00 0.00 0.00 25 1011.2
20260503044508 48 125 0.0 0.0 0.00 0.00 0.00 26 1011.3
20260503043008 49 126 0.0 0.0 0.00 0.00 0.00 26 1011.3
20260503041507 50 126 0.0 0.0 0.00 0.00 0.00 26 1011.3
20260503040011 51 126 0.0 0.0 0.00 0.00 0.00 24 1011.3
20260503034508 52 125 0.0 0.0 0.00 0.00 0.00 24 1011.3
20260503033011 53 77 0.0 0.0 0.00 0.00 0.00 20 1011.2
20260503031505 54 77 0.0 0.0 0.00 0.00 0.00 19 1011.1
20260503030005 56 77 0.0 0.0 0.00 0.00 0.00 20 1011.1
20260503024505 58 77 0.0 0.0 0.00 0.00 0.00 22 1011.1
20260503023005 60 77 0.0 0.0 0.00 0.00 0.00 20 1011.0
20260503021514 62 77 0.0 0.0 0.00 0.00 0.00 13 1010.8
20260503020003 65 77 0.0 0.0 0.00 0.00 0.00 14 1010.7
20260503014504 66 77 0.0 0.0 0.00 0.00 0.00 13 1010.6
20260503013002 67 77 0.0 0.0 0.00 0.00 0.00 10 1010.5
20260503011503 68 83 0.0 0.0 0.00 0.00 0.00 9 1010.4
20260503010002 69 83 0.0 0.0 0.00 0.00 0.00 9 1010.5
20260503003106 72 93 0.0 3.0 0.00 0.00 0.00 8 1010.6
20260503001558 72 69 0.0 1.0 0.00 0.00 0.00 8 1010.8
20260503000104 72 94 0.0 5.0 0.00 0.00 0.00 9 1010.8